CSC3107 ZHHH-ZPPP

Flight info

Callsign CSC3107
Flight time N/A
Altitude 38100
Route GUGAM2E GUGAM A581 QNX W136 XISLI XIS2L
Aircraft A20N/M-SDE2E3FGHIRWXY/LB1

Departure

Time 2026-05-04 13:54
Airport Wuhan Tianhe International Airport (ZHHH)

Arrival

Time N/A
Airport Kunming Changshui International Airport (ZPPP)
Time Latitude Longitude Altitude Speed Heading
2026-05-04 13:45 30.77953 114.20919 134 ft 0 kts 135°
2026-05-04 13:45 30.77955 114.20917 134 ft 3 kts 135°
2026-05-04 13:46 30.77975 114.20894 134 ft 4 kts 135°
2026-05-04 13:46 30.77995 114.20870 134 ft 4 kts 135°
2026-05-04 13:46 30.78003 114.20841 134 ft 4 kts 68°
2026-05-04 13:46 30.77994 114.20823 134 ft 0 kts 34°
2026-05-04 13:49 30.78011 114.20837 134 ft 7 kts 38°
2026-05-04 13:50 30.78071 114.20895 134 ft 14 kts 39°
2026-05-04 13:50 30.78160 114.20991 134 ft 20 kts 43°
2026-05-04 13:50 30.78281 114.21121 134 ft 26 kts 43°
2026-05-04 13:50 30.78427 114.21270 134 ft 30 kts 40°
2026-05-04 13:51 30.78619 114.21394 134 ft 34 kts 20°
2026-05-04 13:51 30.78816 114.21547 134 ft 35 kts 41°
2026-05-04 13:51 30.79000 114.21731 134 ft 34 kts 40°
2026-05-04 13:51 30.79173 114.21867 134 ft 19 kts 328°
2026-05-04 13:52 30.79189 114.21766 135 ft 0 kts 313°
2026-05-04 13:52 30.79212 114.21738 136 ft 13 kts 313°
2026-05-04 13:52 30.79190 114.21661 136 ft 11 kts 221°
2026-05-04 13:53 30.79029 114.21495 137 ft 60 kts 221°
2026-05-04 13:53 30.78551 114.21006 136 ft 121 kts 221°
2026-05-04 13:53 30.77803 114.20234 209 ft 160 kts 222°
2026-05-04 13:54 30.76130 114.18480 1349 ft 164 kts 223°
2026-05-04 13:54 30.75647 114.17733 1606 ft 180 kts 235°
2026-05-04 13:54 30.73812 114.14291 2273 ft 245 kts 236°
2026-05-04 13:55 30.73213 114.13160 2661 ft 251 kts 236°
2026-05-04 13:55 30.71353 114.09661 4143 ft 257 kts 236°
2026-05-04 13:55 30.70402 114.07884 4870 ft 261 kts 237°
2026-05-04 13:56 30.69433 114.06083 5568 ft 265 kts 237°
2026-05-04 13:56 30.68445 114.04251 6279 ft 270 kts 237°
2026-05-04 13:56 30.66419 114.00504 7743 ft 277 kts 237°
2026-05-04 13:57 30.65389 113.98599 8538 ft 280 kts 237°
2026-05-04 13:57 30.64348 113.96676 9340 ft 283 kts 238°
2026-05-04 13:58 30.61037 113.90564 10807 ft 325 kts 238°
2026-05-04 13:58 30.60435 113.89453 10958 ft 335 kts 238°